N5JLR-2 Weather Reports


Display with metric or nautical units.
time (UTC)temp
F
wind
direction
speed
MPH
gust
MPH
rain 1hr
in
rain 24hr
in
rain mn
in
humidity
%
barometer
mb
20260504021533 71 95 1.0 6.0 0.00 0.00 0.00 78 1018.2
20260504020031 72 62 2.0 9.0 0.00 0.00 0.00 77 1018.3
20260504014537 72 85 2.0 6.0 0.00 0.00 0.00 77 1018.3
20260504013029 73 0 1.0 4.0 0.00 0.00 0.00 75 1018.3
20260504011528 73 90 1.0 6.0 0.00 0.00 0.00 74 1018.3
20260504010030 73 61 2.0 11.0 0.00 0.00 0.00 73 1018.2
20260504004528 74 57 2.0 10.0 0.00 0.00 0.00 72 1017.8
20260504003034 74 102 3.0 12.0 0.00 0.00 0.00 71 1017.8
20260504001532 75 75 5.0 12.0 0.00 0.00 0.00 70 1017.6
20260504000028 75 53 5.0 14.0 0.00 0.00 0.00 69 1017.7
20260503234529 75 70 7.0 14.0 0.00 0.00 0.00 68 1017.8
20260503233029 76 82 5.0 12.0 0.00 0.00 0.00 67 1017.9
20260503231530 76 65 5.0 13.0 0.00 0.00 0.00 67 1018.0
20260503230029 77 61 5.0 15.0 0.00 0.00 0.00 66 1018.3
20260503224528 76 67 5.0 12.0 0.00 0.00 0.00 66 1018.3
20260503223028 77 94 5.0 12.0 0.00 0.00 0.00 64 1018.5
20260503221529 77 36 6.0 14.0 0.00 0.00 0.00 65 1018.6
20260503220030 77 63 4.0 13.0 0.00 0.00 0.00 64 1019.1
20260503214528 78 37 7.0 15.0 0.00 0.00 0.00 62 1018.8
20260503213030 78 83 5.0 16.0 0.00 0.00 0.00 62 1018.8
20260503211530 78 53 7.0 12.0 0.00 0.00 0.00 61 1019.1
20260503210028 78 65 5.0 16.0 0.00 0.00 0.00 61 1019.2
20260503204528 77 128 2.0 13.0 0.00 0.00 0.00 60 1019.5
20260503203029 78 61 5.0 11.0 0.00 0.00 0.00 60 1020.0
20260503201530 78 98 6.0 11.0 0.00 0.00 0.00 60 1020.4
20260503200029 77 78 5.0 14.0 0.00 0.00 0.00 61 1020.5
20260503194533 77 42 7.0 16.0 0.00 0.00 0.00 61 1020.7
20260503193029 77 53 6.0 15.0 0.00 0.00 0.00 60 1020.7
20260503191536 77 50 7.0 15.0 0.00 0.00 0.00 62 1021.0
20260503190027 79 102 5.0 13.0 0.00 0.00 0.00 59 1021.1
20260503184529 78 59 5.0 13.0 0.00 0.00 0.00 60 1021.5
20260503183030 79 58 7.0 14.0 0.00 0.00 0.00 58 1021.6
20260503181527 78 314 5.0 10.0 0.00 0.00 0.00 59 1021.6
20260503180042 77 39 5.0 14.0 0.00 0.00 0.00 59 1022.0
20260503174528 77 32 7.0 13.0 0.00 0.00 0.00 61 1022.0
20260503173028 78 57 3.0 14.0 0.00 0.00 0.00 61 1022.1
20260503171529 77 33 5.0 16.0 0.00 0.00 0.00 62 1022.4
20260503081526 64 327 0.0 3.0 0.00 0.00 0.00 82 1020.9
20260503071531 64 0 0.0 2.0 0.00 0.00 0.00 83 1021.3
20260503054536 65 294 0.0 3.0 0.00 0.00 0.00 79 1021.9
20260503053029 65 0 0.0 3.0 0.00 0.00 0.00 80 1022.1
20260503051526 65 0 0.0 3.0 0.00 0.00 0.00 80 1022.0
20260503050034 65 0 0.0 2.0 0.00 0.00 0.00 79 1021.8
20260503044527 65 0 0.0 1.0 0.00 0.00 0.00 78 1021.7
20260503043040 66 0 0.0 1.0 0.00 0.00 0.00 78 1021.7
20260503041528 66 0 0.0 4.0 0.00 0.00 0.00 78 1021.7
20260503040030 66 0 0.0 3.0 0.00 0.00 0.00 78 1021.8
20260503034530 66 0 0.0 4.0 0.00 0.00 0.00 78 1021.5
20260503033034 66 0 1.0 3.0 0.00 0.00 0.00 78 1021.5
20260503031529 66 333 0.0 5.0 0.00 0.00 0.00 78 1021.1
20260503030027 66 0 0.0 5.0 0.00 0.00 0.00 77 1021.0
20260503024530 67 321 1.0 4.0 0.00 0.00 0.00 77 1020.4
20260503023027 67 342 1.0 4.0 0.00 0.00 0.00 76 1020.4